{"data":{"norad_id":53054,"intl_designator":"2022-077M","name":"STARLINK-4339","alt_names":[],"object_type":"PAYLOAD","status":"ACTIVE","operator":null,"country":"US","launch_date":"2022-07-11","launch_site_code":"AFWTR","launch_vehicle":null,"mission":null,"orbit_class":"UNKNOWN","rcs_meters":null,"size_class":null,"mass_kg":null,"dimensions":null,"purposes":["comms"],"wikipedia_slug":null,"has_3d_model":false,"image_url":null,"decayed_at":null,"tle_current":{"epoch":"2026-09-20T02:10:05.318112Z","epoch_age_seconds":104862,"freshness":"FRESH","line1":"1 53054U 22077M   26263.09033933  .00000492  00000+0  17554-4 0  9994","line2":"2 53054  97.2851  78.7927 0001210 118.8290 241.3074 15.33438034230284","mean_motion":15.33438034,"eccentricity":0.000121,"inclination_deg":97.2851,"raan_deg":78.7927,"arg_perigee_deg":118.829,"mean_anomaly_deg":241.3074,"bstar":1.7554e-5,"rev_number":23028,"period_min":93.906631247676,"perigee_km":464.73581266264,"apogee_km":466.39198828055,"semimajor_km":6843.7009004716,"source":"CELESTRAK","updated_at":"2026-09-20T09:00:40.152042Z"}}}